Date String (YYYY-MM-DD hh:mm:ss) UTC,Instrument flags,absolute air pressure of the measurement (hPa),sample flow rate (lpm),inlet stack bypass flow (lpm),air temperature of the measurement (°C),ambient temperature measured by the external sensor (°C),aerosol sample conditioner tube jacket temperature (°C),OPC LED temperature (°C),internal box temperature (°C),relative humidity of the measurement (%),span deviation,mass concentration of particles derived from Lorenz-Mie calculation of OPC scattering (μg/m³),mass concentration of particles derived from Lorenz-Mie calculation of OPC scattering (μg/m³),mass concentration of particles derived from Lorenz-Mie calculation of OPC scattering (μg/m³)
DateTimeUTC,F1_M11,P_M11,Q1_M11,Q2_M11,T1_M11,T2_M11,T3_M11,T4_M11,T5_M11,U1_M11,ZSPAN_M11,X0_M11,X2_M11,X1_M11
2023-07-22 07:00:00,SystemResetWarning,0837.0,5.01,000.00,029.9,028.7,000.0,038.3,031.5,27.1,0000.0,0011.34,0005.97,0005.54
2023-07-22 07:01:00,SystemResetWarning,0837.0,4.99,000.00,029.9,028.7,000.0,038.3,031.5,27.2,0000.2,0011.03,0006.07,0005.66
2023-07-22 07:02:00,SystemResetWarning,0837.0,4.98,000.00,029.9,028.7,000.0,038.3,031.5,27.4,0000.0,0010.78,0006.15,0005.73
2023-07-22 07:03:00,SystemResetWarning,0837.1,4.98,000.00,029.9,028.7,000.0,038.3,031.5,27.5,0000.0,0011.02,0006.20,0005.78
2023-07-22 07:04:00,SystemResetWarning,0837.1,4.99,000.00,029.9,027.9,000.0,038.3,031.5,27.3,0000.0,0011.71,0006.33,0005.88
2023-07-22 07:05:00,SystemResetWarning,0837.1,5.00,000.00,029.9,025.9,000.0,038.1,031.2,27.1,0000.0,0011.91,0006.47,0006.00
2023-07-22 07:06:00,SystemResetWarning,0837.1,5.01,000.00,029.8,025.2,000.0,038.1,030.9,26.9,-000.2,0011.76,0006.47,0006.01
2023-07-22 07:07:00,SystemResetWarning,0837.1,5.01,000.00,029.6,025.3,000.0,038.1,030.7,27.1,0000.0,0010.87,0006.45,0005.99
2023-07-22 07:08:00,SystemResetWarning,0837.2,4.99,000.00,029.5,025.7,000.0,038.1,030.7,27.4,0000.1,0010.85,0006.43,0005.99
2023-07-22 07:09:00,SystemResetWarning,0837.2,4.99,000.00,029.5,026.1,000.0,038.1,030.7,27.1,0000.1,0010.84,0006.40,0005.96
2023-07-22 07:10:00,SystemResetWarning,0837.2,5.00,000.00,029.5,026.5,000.0,038.1,030.8,27.0,-000.1,0010.34,0006.38,0005.93
2023-07-22 07:11:00,SystemResetWarning,0837.3,5.00,000.00,029.4,026.8,000.0,038.1,030.8,27.0,0000.0,0009.67,0006.27,0005.84
2023-07-22 07:12:00,SystemResetWarning,0837.2,5.01,000.00,029.4,027.1,000.0,038.0,030.9,27.2,0000.0,0009.61,0006.15,0005.72
2023-07-22 07:13:00,SystemResetWarning,0837.2,5.00,000.00,029.4,027.3,000.0,038.0,030.9,27.1,0000.0,0009.44,0006.00,0005.61
2023-07-22 07:14:00,SystemResetWarning,0837.2,4.98,000.00,029.4,027.5,000.0,038.0,031.0,27.1,0000.0,0009.55,0005.86,0005.48
2023-07-22 07:15:00,SystemResetWarning,0837.2,4.99,000.00,029.5,027.7,000.0,038.0,031.0,27.0,0000.0,0008.74,0005.72,0005.34
2023-07-22 07:16:00,SystemResetWarning,0837.2,5.02,000.00,029.5,027.8,000.0,038.0,031.0,26.9,0000.0,0008.57,0005.58,0005.21
2023-07-22 07:17:00,SystemResetWarning,0837.2,4.99,000.00,029.5,027.9,000.0,038.0,031.0,27.2,0000.0,0008.48,0005.43,0005.06
2023-07-22 07:18:00,SystemResetWarning,0837.1,5.00,000.00,029.5,028.0,000.0,038.0,031.1,27.0,0000.0,0008.56,0005.29,0004.95
2023-07-22 07:19:00,SystemResetWarning,0836.9,5.00,000.00,029.5,028.1,000.0,038.0,031.1,26.8,0000.0,0008.35,0005.16,0004.83
2023-07-22 07:20:00,SystemResetWarning,0836.9,5.00,000.00,029.5,028.2,000.0,038.0,031.1,26.9,0000.0,0008.29,0005.08,0004.74
2023-07-22 07:21:00,SystemResetWarning,0836.9,5.01,000.00,029.6,028.3,000.0,038.1,031.2,26.9,0000.0,0008.21,0005.00,0004.67
2023-07-22 07:22:00,SystemResetWarning,0836.9,5.01,000.00,029.6,028.3,000.0,038.1,031.2,26.8,0000.0,0008.22,0004.96,0004.62
2023-07-22 07:23:00,SystemResetWarning,0836.8,4.99,000.00,029.6,028.4,000.0,038.1,031.2,26.9,0000.0,0008.13,0004.91,0004.58
2023-07-22 07:24:00,SystemResetWarning,0836.8,4.99,000.00,029.6,028.4,000.0,038.1,031.3,27.2,0000.0,0008.14,0004.91,0004.57
2023-07-22 07:25:00,SystemResetWarning,0836.8,5.00,000.00,029.7,028.4,000.0,038.1,031.3,27.9,0000.0,0007.91,0004.92,0004.56
2023-07-22 07:26:00,SystemResetWarning,0836.7,5.01,000.00,029.7,028.5,000.0,038.1,031.3,27.4,0000.0,0007.88,0004.92,0004.56
2023-07-22 07:27:00,SystemResetWarning,0836.7,5.00,000.00,029.7,028.5,000.0,038.1,031.3,27.1,0000.0,0008.01,0004.93,0004.56
2023-07-22 07:28:00,SystemResetWarning,0836.7,4.99,000.00,029.7,028.5,000.0,038.2,031.3,27.0,0000.0,0008.29,0004.96,0004.58
2023-07-22 07:29:00,SystemResetWarning,0836.7,5.00,000.00,029.8,028.6,000.0,038.2,031.4,27.0,0000.0,0007.96,0004.97,0004.60
2023-07-22 07:30:00,SystemResetWarning,0836.7,5.01,000.00,029.8,028.6,000.0,038.2,031.4,26.9,0000.0,0007.95,0004.98,0004.61
2023-07-22 07:31:00,SystemResetWarning,0836.7,5.00,000.00,029.8,028.6,000.0,038.2,031.4,27.0,0000.0,0007.95,0004.99,0004.63
2023-07-22 07:32:00,SystemResetWarning,0836.6,4.99,000.00,029.8,028.6,000.0,038.2,031.4,27.1,0000.0,0007.95,0005.00,0004.65
2023-07-22 07:33:00,SystemResetWarning,0836.7,4.99,000.00,029.8,028.6,000.0,038.2,031.4,26.8,0000.0,0008.02,0005.02,0004.67
2023-07-22 07:34:00,SystemResetWarning,0836.6,5.01,000.00,029.8,028.6,000.0,038.3,031.4,26.6,0000.0,0008.07,0005.06,0004.71
2023-07-22 07:35:00,SystemResetWarning,0836.6,5.01,000.00,029.9,028.6,000.0,038.3,031.5,26.9,0000.0,0008.43,0005.08,0004.73
2023-07-22 07:36:00,SystemResetWarning,0836.6,5.01,000.00,029.9,028.6,000.0,038.3,031.5,25.1,0000.0,0008.86,0005.10,0004.76
2023-07-22 07:37:00,SystemResetWarning,0836.6,5.00,000.00,029.9,028.7,000.0,038.3,031.5,25.9,0000.0,0008.87,0005.11,0004.78
2023-07-22 07:38:00,SystemResetWarning,0836.6,4.99,000.00,029.9,028.7,000.0,038.3,031.5,26.0,0000.0,0008.79,0005.12,0004.81
2023-07-22 07:39:00,SystemResetWarning,0836.5,4.99,000.00,029.9,028.7,000.0,038.4,031.5,26.0,0000.0,0009.00,0005.12,0004.83
2023-07-22 07:40:00,SystemResetWarning,0836.5,5.00,000.00,030.0,028.7,000.0,038.4,031.5,25.7,0000.0,0009.02,0005.16,0004.86
2023-07-22 07:41:00,SystemResetWarning,0836.5,5.00,000.00,030.0,028.7,000.0,038.4,031.5,25.8,0000.0,0009.09,0005.21,0004.90
2023-07-22 07:42:00,SystemResetWarning,0836.4,5.00,000.00,030.0,028.7,000.0,038.4,031.6,25.9,0000.0,0009.11,0005.26,0004.93
2023-07-22 07:43:00,SystemResetWarning,0836.4,5.01,000.00,030.0,028.7,000.0,038.4,031.6,27.0,0000.0,0009.12,0005.30,0004.97
2023-07-22 07:44:00,SystemResetWarning,0836.2,5.00,000.00,030.0,028.7,000.0,038.4,031.6,27.8,0000.0,0009.31,0005.31,0004.99
2023-07-22 07:45:00,SystemResetWarning,0836.3,5.00,000.00,030.0,028.7,000.0,038.4,031.6,27.6,0000.0,0009.57,0005.29,0004.98
2023-07-22 07:46:00,SystemResetWarning,0836.2,5.00,000.00,030.0,028.7,000.0,038.5,031.6,27.6,0000.0,0009.40,0005.29,0004.98
2023-07-22 07:47:00,SystemResetWarning,0836.2,4.99,000.00,030.0,028.7,000.0,038.5,031.6,28.6,0000.0,0008.83,0005.28,0004.98
2023-07-22 07:48:00,SystemResetWarning,0836.3,5.00,000.00,030.0,028.7,000.0,038.5,031.6,28.2,0000.0,0008.85,0005.31,0004.98
2023-07-22 07:49:00,SystemResetWarning,0836.2,5.01,000.00,030.1,028.7,000.0,038.5,031.6,26.0,0000.0,0008.86,0005.33,0004.98
2023-07-22 07:50:00,SystemResetWarning,0836.2,5.01,000.00,030.1,028.7,000.0,038.5,031.6,25.1,0000.0,0009.00,0005.30,0004.94
2023-07-22 07:51:00,SystemResetWarning,0836.2,5.00,000.00,030.1,028.7,000.0,038.5,031.6,25.1,0000.0,0009.08,0005.30,0004.92
2023-07-22 07:52:00,SystemResetWarning,0836.2,4.98,000.00,030.1,028.7,000.0,038.5,031.6,24.9,0000.0,0009.06,0005.27,0004.90
2023-07-22 07:53:00,SystemResetWarning,0836.2,5.01,000.00,030.1,028.7,000.0,038.5,031.6,24.5,0000.0,0009.04,0005.21,0004.86
2023-07-22 07:54:00,SystemResetWarning,0836.2,5.02,000.00,030.1,028.7,000.0,038.5,031.7,24.8,0000.0,0008.98,0005.17,0004.82
2023-07-22 07:55:00,SystemResetWarning,0836.1,5.00,000.00,030.1,028.7,000.0,038.6,031.7,24.6,0000.0,0008.93,0005.14,0004.79
2023-07-22 07:56:00,SystemResetWarning,0836.1,4.99,000.00,030.1,028.7,000.0,038.6,031.6,24.2,0000.0,0008.44,0005.15,0004.77
2023-07-22 07:57:00,SystemResetWarning,0836.2,5.00,000.00,030.1,028.7,000.0,038.6,031.7,23.6,0000.0,0008.42,0005.15,0004.76
2023-07-22 07:58:00,SystemResetWarning,0836.1,4.99,000.00,030.1,027.6,000.0,038.5,031.5,23.6,0000.0,0008.42,0005.14,0004.76
2023-07-22 07:59:00,SystemResetWarning,0836.1,5.01,000.00,030.0,025.7,000.0,038.3,031.2,24.4,0000.0,0008.55,0005.13,0004.74
